�������l�o���
Date,Time,MP-1(��Sv/h),MP-2(��Sv/h),MP-3(��Sv/h),MP-4(��Sv/h),MP-5(��Sv/h),MP-6(��Sv/h),MP-7(��Sv/h),MP-8(��Sv/h),����,����(m/s),���J
2017/10/02,00:00,0.946,1.501,0.972,1.784,1.236,0.509,0.935,0.861,��,8.0,��
2017/10/02,00:10,0.944,1.501,0.972,1.782,1.234,0.510,0.936,0.861,��,7.6,��
2017/10/02,00:20,0.943,1.504,0.972,1.781,1.235,0.509,0.935,0.862,��,7.4,��
2017/10/02,00:30,0.944,1.499,0.972,1.781,1.236,0.511,0.936,0.861,��쐼,6.4,��
2017/10/02,00:40,0.945,1.502,0.971,1.782,1.237,0.509,0.936,0.861,��,6.8,��
2017/10/02,00:50,0.944,1.501,0.973,1.783,1.236,0.509,0.935,0.861,��,7.1,��
2017/10/02,01:00,0.943,1.503,0.972,1.783,1.235,0.509,0.935,0.860,��,6.9,��
2017/10/02,01:10,0.946,1.502,0.971,1.783,1.237,0.510,0.935,0.862,��,6.5,��
2017/10/02,01:20,0.945,1.507,0.970,1.781,1.234,0.508,0.933,0.862,��,6.7,��
2017/10/02,01:30,0.944,1.502,0.972,1.782,1.236,0.510,0.937,0.864,��,7.1,��
2017/10/02,01:40,0.945,1.503,0.973,1.781,1.238,0.509,0.936,0.862,��,7.1,��
2017/10/02,01:50,0.944,1.501,0.970,1.785,1.235,0.511,0.936,0.862,��,7.4,��
2017/10/02,02:00,0.945,1.503,0.969,1.785,1.233,0.511,0.936,0.863,��,7.4,��
2017/10/02,02:10,0.944,1.501,0.972,1.787,1.234,0.509,0.935,0.862,��,5.7,��
2017/10/02,02:20,0.944,1.502,0.972,1.786,1.237,0.511,0.938,0.863,��,4.9,��
2017/10/02,02:30,0.945,1.502,0.974,1.781,1.234,0.511,0.936,0.861,��,5.3,��
2017/10/02,02:40,0.946,1.500,0.969,1.783,1.233,0.511,0.937,0.862,��,4.9,��
2017/10/02,02:50,0.945,1.503,0.971,1.785,1.238,0.512,0.935,0.862,��,5.5,��
2017/10/02,03:00,0.946,1.501,0.972,1.784,1.237,0.511,0.936,0.862,��쐼,5.6,��
2017/10/02,03:10,0.945,1.501,0.971,1.782,1.236,0.509,0.938,0.863,��쐼,5.8,��
2017/10/02,03:20,0.944,1.504,0.971,1.783,1.237,0.509,0.936,0.864,��,5.7,��
2017/10/02,03:30,0.946,1.502,0.973,1.784,1.236,0.511,0.937,0.861,��,5.9,��
2017/10/02,03:40,0.947,1.499,0.973,1.782,1.238,0.511,0.937,0.862,��쐼,8.0,��
2017/10/02,03:50,0.946,1.502,0.973,1.786,1.238,0.510,0.937,0.862,��쐼,8.2,��
2017/10/02,04:00,0.946,1.501,0.972,1.785,1.233,0.509,0.937,0.861,��쐼,8.4,��
2017/10/02,04:10,0.942,1.502,0.973,1.786,1.239,0.511,0.936,0.863,��쐼,7.3,��
2017/10/02,04:20,0.945,1.500,0.971,1.785,1.237,0.512,0.937,0.861,��쐼,8.0,��
2017/10/02,04:30,0.943,1.503,0.972,1.784,1.236,0.511,0.937,0.863,��쐼,8.1,��
2017/10/02,04:40,0.946,1.502,0.972,1.782,1.236,0.509,0.937,0.862,��쐼,7.2,��
2017/10/02,04:50,0.946,1.501,0.972,1.784,1.235,0.512,0.939,0.863,��쐼,5.9,��
2017/10/02,05:00,0.945,1.503,0.973,1.786,1.236,0.511,0.937,0.863,��쐼,4.6,��
2017/10/02,05:10,0.944,1.503,0.971,1.782,1.235,0.511,0.937,0.863,��쐼,2.8,��
2017/10/02,05:20,0.943,1.500,0.972,1.783,1.236,0.510,0.937,0.863,��,1.1,��
2017/10/02,05:30,0.946,1.502,0.973,1.786,1.236,0.511,0.939,0.863,���쓌,1.4,��
2017/10/02,05:40,0.945,1.503,0.972,1.786,1.236,0.509,0.937,0.861,�쓌,2.0,��
2017/10/02,05:50,0.945,1.501,0.974,1.786,1.235,0.510,0.936,0.863,��,2.6,��
2017/10/02,06:00,0.945,1.503,0.970,1.785,1.234,0.510,0.937,0.863,��,3.6,��
2017/10/02,06:10,0.946,1.504,0.973,1.785,1.237,0.511,0.937,0.863,��,4.5,��
2017/10/02,06:20,0.943,1.504,0.974,1.785,1.236,0.510,0.937,0.862,��,5.3,��
2017/10/02,06:30,0.946,1.506,0.973,1.786,1.235,0.509,0.936,0.862,��,5.4,��
2017/10/02,06:40,0.945,1.501,0.973,1.785,1.234,0.510,0.935,0.862,��,5.7,��
2017/10/02,06:50,0.945,1.503,0.971,1.785,1.235,0.511,0.936,0.863,��,6.0,��
2017/10/02,07:00,0.945,1.505,0.970,1.785,1.236,0.510,0.935,0.862,��,6.1,��
2017/10/02,07:10,0.943,1.501,0.971,1.787,1.237,0.510,0.936,0.861,��,5.6,��
2017/10/02,07:20,0.947,1.505,0.973,1.785,1.234,0.512,0.937,0.862,��,5.8,��
2017/10/02,07:30,0.947,1.503,0.973,1.785,1.235,0.511,0.937,0.864,��,5.8,��
2017/10/02,07:40,0.945,1.503,0.976,1.784,1.236,0.511,0.937,0.863,��,6.4,��
2017/10/02,07:50,0.944,1.505,0.973,1.785,1.236,0.511,0.935,0.864,��,7.2,��
2017/10/02,08:00,0.946,1.503,0.973,1.787,1.236,0.509,0.936,0.863,��,7.5,��
2017/10/02,08:10,0.947,1.502,0.972,1.788,1.235,0.508,0.934,0.861,��,6.9,��
2017/10/02,08:20,0.944,1.502,0.973,1.785,1.236,0.509,0.937,0.862,��,6.9,��
2017/10/02,08:30,0.943,1.501,0.971,1.785,1.235,0.509,0.934,0.863,��,6.8,��
2017/10/02,08:40,0.946,1.503,0.974,1.788,1.234,0.510,0.938,0.864,��,6.6,��
2017/10/02,08:50,0.944,1.504,0.974,1.787,1.236,0.510,0.936,0.863,��,7.3,��
2017/10/02,09:00,0.946,1.501,0.973,1.786,1.234,0.508,0.937,0.862,��,7.4,��
2017/10/02,09:10,0.944,1.502,0.973,1.788,1.235,0.508,0.936,0.864,��,6.9,��
2017/10/02,09:20,0.942,1.501,0.973,1.788,1.235,0.508,0.936,0.862,��,7.2,��
2017/10/02,09:30,0.942,1.499,0.988,1.786,1.235,0.509,0.934,0.863,��,7.6,��
2017/10/02,09:40,0.943,1.499,0.970,1.787,1.231,0.507,0.935,0.862,��,7.7,��
2017/10/02,09:50,0.944,1.502,0.972,1.789,1.237,0.509,0.935,0.860,��,6.2,��
2017/10/02,10:00,0.943,1.504,0.972,1.788,1.233,0.508,0.936,0.864,��,5.8,��
2017/10/02,10:10,0.942,1.500,0.972,1.788,1.234,0.507,0.936,0.862,��쓌,6.1,��
2017/10/02,10:20,0.945,1.496,0.971,1.788,1.238,0.509,0.936,0.863,��쓌,6.9,��
2017/10/02,10:30,0.944,1.497,0.970,1.788,1.237,0.510,0.938,0.863,��,6.4,��
2017/10/02,10:40,0.944,1.499,0.972,1.790,1.233,0.509,0.935,0.862,��,6.6,��
2017/10/02,10:50,0.945,1.498,0.971,1.791,1.234,0.511,0.936,0.860,��,6.3,��
2017/10/02,11:00,0.944,1.503,0.972,1.791,1.238,0.511,0.936,0.861,��쐼,5.1,��
2017/10/02,11:10,0.945,1.501,0.970,1.788,1.233,0.511,0.938,0.860,��,3.7,��
2017/10/02,11:20,0.945,1.498,0.971,1.788,1.235,0.511,0.938,0.861,��,4.3,��
2017/10/02,11:30,0.947,1.499,0.972,1.793,1.238,0.513,0.938,0.862,��쓌,7.2,��
2017/10/02,11:40,0.947,1.503,0.974,1.790,1.236,0.512,0.937,0.861,��,7.6,��
2017/10/02,11:50,0.946,1.500,0.972,1.792,1.237,0.512,0.939,0.862,��쓌,6.1,��
2017/10/02,12:00,0.946,1.504,0.974,1.790,1.237,0.511,0.936,0.860,��,4.7,��
2017/10/02,12:10,0.945,1.504,0.976,1.792,1.236,0.513,0.934,0.861,��,5.9,��
2017/10/02,12:20,0.946,1.506,0.979,1.792,1.238,0.513,0.937,0.862,��,5.6,��
2017/10/02,12:30,0.948,1.505,0.974,1.793,1.240,0.513,0.935,0.861,��,4.4,��
2017/10/02,12:40,0.948,1.508,0.978,1.790,1.239,0.512,0.935,0.862,��,4.8,��
2017/10/02,12:50,0.949,1.507,0.977,1.790,1.239,0.513,0.939,0.863,��,5.3,��
2017/10/02,13:00,0.947,1.509,0.977,1.790,1.239,0.512,0.939,0.863,��,6.7,��
2017/10/02,13:10,0.950,1.505,0.978,1.792,1.239,0.511,0.938,0.860,��,5.3,��
2017/10/02,13:20,0.949,1.506,0.975,1.793,1.241,0.512,0.939,0.864,��쐼,5.3,��
2017/10/02,13:30,0.948,1.506,0.976,1.793,1.241,0.511,0.939,0.864,��,7.1,��
2017/10/02,13:40,0.950,1.505,0.979,1.790,1.243,0.510,0.939,0.862,��,5.7,��
2017/10/02,13:50,0.949,1.503,0.977,1.793,1.241,0.511,0.939,0.862,��,4.5,��
2017/10/02,14:00,0.949,1.505,0.977,1.791,1.241,0.511,0.939,0.861,��,7.5,��
2017/10/02,14:10,0.948,1.507,0.975,1.791,1.240,0.511,0.939,0.862,��,8.2,��
2017/10/02,14:20,0.949,1.508,0.976,1.793,1.242,0.510,0.939,0.863,��,7.7,��
2017/10/02,14:30,0.948,1.505,0.976,1.791,1.242,0.509,0.937,0.861,��,7.7,��
2017/10/02,14:40,0.950,1.508,0.977,1.794,1.243,0.512,0.940,0.864,��,10.4,��
2017/10/02,14:50,0.951,1.504,0.977,1.791,1.243,0.511,0.939,0.863,��,10.2,��
2017/10/02,15:00,0.950,1.505,0.973,1.793,1.244,0.511,0.939,0.862,��,7.9,��
2017/10/02,15:10,0.949,1.502,0.974,1.795,1.242,0.510,0.936,0.859,��,9.5,��
2017/10/02,15:20,0.949,1.509,0.977,1.793,1.243,0.510,0.937,0.862,��,8.9,��
2017/10/02,15:30,0.950,1.508,0.977,1.793,1.242,0.510,0.940,0.861,��,10.3,��
2017/10/02,15:40,0.949,1.507,0.976,1.793,1.243,0.510,0.940,0.864,��,10.5,��
2017/10/02,15:50,0.947,1.505,0.976,1.794,1.241,0.511,0.938,0.863,��,10.6,��
2017/10/02,16:00,0.949,1.506,0.975,1.795,1.242,0.511,0.939,0.862,��,9.8,��
2017/10/02,16:10,0.948,1.508,0.978,1.796,1.241,0.512,0.940,0.862,��,9.5,��
2017/10/02,16:20,0.951,1.509,0.977,1.796,1.243,0.511,0.937,0.862,��,8.3,��
2017/10/02,16:30,0.945,1.509,0.979,1.794,1.241,0.510,0.938,0.862,��쓌,8.5,��
2017/10/02,16:40,0.947,1.510,0.975,1.793,1.242,0.512,0.937,0.861,��,7.8,��
2017/10/02,16:50,0.948,1.509,0.977,1.794,1.242,0.509,0.938,0.865,��,8.4,��
2017/10/02,17:00,0.947,1.509,0.977,1.796,1.244,0.510,0.937,0.864,��,8.5,��
2017/10/02,17:10,0.948,1.508,0.977,1.792,1.240,0.514,0.938,0.863,��,8.6,��
2017/10/02,17:20,0.947,1.511,0.978,1.798,1.243,0.510,0.939,0.862,��,7.8,��
2017/10/02,17:30,0.948,1.512,0.980,1.794,1.244,0.512,0.940,0.866,��,7.9,�L
2017/10/02,17:40,0.945,1.510,0.978,1.798,1.242,0.511,0.938,0.866,��,7.4,�L
2017/10/02,17:50,0.947,1.509,0.979,1.794,1.244,0.511,0.938,0.865,��,6.6,�L
2017/10/02,18:00,0.948,1.509,0.977,1.795,1.243,0.511,0.938,0.865,��,7.1,�L
2017/10/02,18:10,0.948,1.510,0.977,1.796,1.241,0.512,0.940,0.865,��,8.1,�L
2017/10/02,18:20,0.948,1.511,0.980,1.796,1.243,0.513,0.940,0.866,��,8.3,�L
2017/10/02,18:30,0.944,1.513,0.980,1.797,1.245,0.512,0.938,0.865,��,7.3,�L
2017/10/02,18:40,0.947,1.512,0.979,1.794,1.243,0.513,0.940,0.865,��,7.3,�L
2017/10/02,18:50,0.950,1.515,0.981,1.795,1.246,0.515,0.939,0.866,��,6.6,�L
2017/10/02,19:00,0.949,1.513,0.981,1.795,1.245,0.513,0.941,0.864,��,7.0,�L
2017/10/02,19:10,0.949,1.513,0.981,1.795,1.242,0.513,0.941,0.865,��,7.1,��
2017/10/02,19:20,0.948,1.513,0.978,1.795,1.245,0.514,0.939,0.866,��,6.6,��
2017/10/02,19:30,0.947,1.515,0.980,1.795,1.246,0.513,0.940,0.866,��쐼,6.1,��
2017/10/02,19:40,0.947,1.513,0.981,1.793,1.246,0.513,0.942,0.865,��,7.2,�L
2017/10/02,19:50,0.948,1.514,0.981,1.795,1.246,0.514,0.939,0.865,��쐼,7.4,�L
2017/10/02,20:00,0.950,1.515,0.982,1.795,1.243,0.515,0.939,0.866,��쐼,6.7,�L
2017/10/02,20:10,0.950,1.512,0.978,1.796,1.245,0.516,0.939,0.866,��,7.2,�L
2017/10/02,20:20,0.950,1.515,0.982,1.795,1.245,0.515,0.941,0.865,��,6.0,�L
2017/10/02,20:30,0.952,1.514,0.983,1.794,1.245,0.515,0.940,0.865,��,7.4,�L
2017/10/02,20:40,0.953,1.512,0.980,1.794,1.245,0.515,0.942,0.865,��,8.3,�L
2017/10/02,20:50,0.950,1.513,0.982,1.797,1.245,0.516,0.942,0.865,��,8.3,�L
2017/10/02,21:00,0.951,1.511,0.980,1.792,1.243,0.516,0.941,0.866,��,6.8,�L
2017/10/02,21:10,0.951,1.514,0.983,1.797,1.248,0.516,0.941,0.866,��,7.5,�L
2017/10/02,21:20,0.952,1.514,0.982,1.796,1.246,0.516,0.942,0.866,��,8.6,�L
2017/10/02,21:30,0.952,1.514,0.980,1.796,1.247,0.516,0.939,0.866,��쐼,8.8,�L
2017/10/02,21:40,0.952,1.512,0.979,1.795,1.246,0.516,0.941,0.865,��,7.7,�L
2017/10/02,21:50,0.949,1.510,0.980,1.795,1.245,0.516,0.941,0.864,��,7.1,��
2017/10/02,22:00,0.950,1.511,0.982,1.791,1.245,0.515,0.941,0.867,��쐼,6.2,��
2017/10/02,22:10,0.950,1.510,0.978,1.795,1.244,0.517,0.939,0.864,��,5.7,��
2017/10/02,22:20,0.947,1.509,0.981,1.794,1.244,0.515,0.940,0.864,��쐼,3.8,��
2017/10/02,22:30,0.947,1.511,0.980,1.792,1.245,0.515,0.939,0.865,��쐼,3.9,��
2017/10/02,22:40,0.949,1.508,0.979,1.791,1.246,0.516,0.940,0.867,��,6.4,��
2017/10/02,22:50,0.948,1.510,0.979,1.796,1.241,0.514,0.939,0.865,��쐼,7.4,�L
2017/10/02,23:00,0.948,1.508,0.978,1.793,1.244,0.514,0.939,0.865,��쐼,6.6,�L
2017/10/02,23:10,0.949,1.509,0.977,1.792,1.243,0.517,0.938,0.865,��쐼,4.5,��
2017/10/02,23:20,0.948,1.510,0.979,1.792,1.242,0.514,0.938,0.863,��쐼,4.3,�L
2017/10/02,23:30,0.948,1.509,0.979,1.792,1.241,0.514,0.939,0.863,��,4.7,��
2017/10/02,23:40,0.947,1.508,0.980,1.795,1.243,0.515,0.941,0.863,��쐼,4.3,��
2017/10/02,23:50,0.947,1.507,0.980,1.791,1.242,0.513,0.939,0.865,��쐼,4.9,��
